EWG76U EDDL-EDDH

Flight info

Callsign EWG76U
Flight time 0h 37m
Altitude 31000
Route MEVEL4T MEVEL Y850 BASUM/N0436F300 Y850 PIXUR/N0433F290 Y850 MUBZI M105 RIBSO RIBSO3D
Aircraft A321/M-SDE3FGHIRWY/LB1

Departure

Time 2026-05-01 11:24
Airport Düsseldorf Airport (EDDL)

Arrival

Time 2026-05-01 12:01
Airport Hamburg Helmut Schmidt Airport (EDDH)
Time Latitude Longitude Altitude Speed Heading
2026-05-01 11:12 51.28155 6.76735 137 ft 0 kts 277°
2026-05-01 11:16 51.28153 6.76753 137 ft 4 kts 269°
2026-05-01 11:16 51.28153 6.76791 137 ft 4 kts 277°
2026-05-01 11:16 51.28145 6.76822 137 ft 4 kts 343°
2026-05-01 11:16 51.28121 6.76821 137 ft 4 kts 17°
2026-05-01 11:17 51.28100 6.76809 137 ft 1 kts 17°
2026-05-01 11:18 51.28105 6.76812 137 ft 3 kts 17°
2026-05-01 11:18 51.28164 6.76835 137 ft 14 kts
2026-05-01 11:18 51.28271 6.76856 137 ft 16 kts
2026-05-01 11:18 51.28375 6.76861 137 ft 14 kts 339°
2026-05-01 11:19 51.28457 6.76774 137 ft 15 kts 344°
2026-05-01 11:19 51.28534 6.76870 137 ft 15 kts 52°
2026-05-01 11:19 51.28603 6.77012 137 ft 17 kts 52°
2026-05-01 11:19 51.28677 6.77165 137 ft 18 kts 53°
2026-05-01 11:20 51.28754 6.77332 137 ft 19 kts 52°
2026-05-01 11:20 51.28839 6.77509 137 ft 21 kts 52°
2026-05-01 11:20 51.28928 6.77696 137 ft 22 kts 53°
2026-05-01 11:20 51.29021 6.77891 137 ft 22 kts 52°
2026-05-01 11:21 51.29116 6.78093 137 ft 23 kts 53°
2026-05-01 11:21 51.29204 6.78211 137 ft 15 kts
2026-05-01 11:21 51.29253 6.78191 138 ft 0 kts 329°
2026-05-01 11:22 51.29255 6.78189 138 ft 1 kts 329°
2026-05-01 11:23 51.29273 6.78170 139 ft 10 kts 325°
2026-05-01 11:23 51.29327 6.78081 139 ft 11 kts 274°
2026-05-01 11:23 51.29258 6.77919 137 ft 42 kts 232°
2026-05-01 11:23 51.28910 6.77194 134 ft 119 kts 233°
2026-05-01 11:24 51.28295 6.75885 273 ft 162 kts 226°
2026-05-01 11:24 51.27650 6.74475 1076 ft 157 kts 227°
2026-05-01 11:24 51.26900 6.70849 2177 ft 206 kts 289°
2026-05-01 11:25 51.27825 6.69050 3077 ft 218 kts 324°
2026-05-01 11:25 51.30925 6.68602 4760 ft 250 kts 10°
2026-05-01 11:25 51.32743 6.68947 5496 ft 276 kts
2026-05-01 11:26 51.34711 6.69217 6445 ft 289 kts
2026-05-01 11:26 51.38799 6.69638 8561 ft 300 kts
2026-05-01 11:26 51.40904 6.69733 9410 ft 305 kts
2026-05-01 11:27 51.43037 6.69734 10141 ft 309 kts
2026-05-01 11:27 51.45220 6.69701 10595 ft 323 kts
2026-05-01 11:27 51.47545 6.69667 10731 ft 346 kts
2026-05-01 11:27 51.50023 6.69639 10948 ft 363 kts
2026-05-01 11:28 51.52575 6.69617 11501 ft 370 kts
2026-05-01 11:28 51.55162 6.69612 12119 ft 373 kts
2026-05-01 11:28 51.57759 6.69806 12746 ft 375 kts 11°
2026-05-01 11:29 51.62580 6.72774 14005 ft 374 kts 37°
2026-05-01 11:29 51.64565 6.75453 14587 ft 373 kts 49°
2026-05-01 11:29 51.67719 6.82070 15812 ft 373 kts 56°
2026-05-01 11:30 51.69268 6.85440 16420 ft 375 kts 56°
2026-05-01 11:30 51.70824 6.88833 16977 ft 378 kts 56°
2026-05-01 11:30 51.72393 6.92256 17515 ft 381 kts 56°
2026-05-01 11:30 51.73998 6.95683 18060 ft 386 kts 52°
2026-05-01 11:31 51.75997 6.98525 18561 ft 392 kts 37°
2026-05-01 11:31 51.78264 7.01015 19031 ft 396 kts 36°
2026-05-01 11:31 51.80552 7.03498 19536 ft 397 kts 36°
2026-05-01 11:31 51.82855 7.05985 20020 ft 399 kts 36°
2026-05-01 11:32 51.85171 7.08482 20501 ft 401 kts 36°
2026-05-01 11:32 51.87494 7.10993 20987 ft 403 kts 36°
2026-05-01 11:32 51.89823 7.13524 21462 ft 404 kts 35°
2026-05-01 11:32 51.92162 7.16070 21931 ft 406 kts 36°
2026-05-01 11:33 51.94508 7.18635 22419 ft 407 kts 35°
2026-05-01 11:33 51.96858 7.21216 22880 ft 409 kts 35°
2026-05-01 11:33 51.99217 7.23805 23361 ft 410 kts 35°
2026-05-01 11:33 52.01588 7.26411 23823 ft 412 kts 35°
2026-05-01 11:34 52.03965 7.29026 24230 ft 414 kts 35°
2026-05-01 11:34 52.06355 7.31653 24595 ft 416 kts 34°
2026-05-01 11:34 52.08753 7.34287 24985 ft 417 kts 35°
2026-05-01 11:34 52.11161 7.36934 25268 ft 419 kts 34°
2026-05-01 11:35 52.13594 7.39621 25341 ft 427 kts 35°
2026-05-01 11:35 52.16082 7.42379 25346 ft 438 kts 34°
2026-05-01 11:35 52.18630 7.45207 25346 ft 448 kts 35°
2026-05-01 11:35 52.21238 7.48104 25345 ft 458 kts 34°
2026-05-01 11:36 52.23893 7.51052 25354 ft 465 kts 34°
2026-05-01 11:36 52.26586 7.54041 25355 ft 471 kts 34°
2026-05-01 11:36 52.29313 7.57070 25355 ft 475 kts 34°
2026-05-01 11:36 52.32049 7.60119 25355 ft 477 kts 34°
2026-05-01 11:37 52.34795 7.63190 25350 ft 478 kts 35°
2026-05-01 11:37 52.37538 7.66261 25355 ft 479 kts 35°
2026-05-01 11:37 52.40287 7.69343 25353 ft 478 kts 35°
2026-05-01 11:37 52.43030 7.72423 25356 ft 479 kts 35°
2026-05-01 11:38 52.45772 7.75508 25354 ft 478 kts 35°
2026-05-01 11:38 52.48514 7.78596 25362 ft 478 kts 35°
2026-05-01 11:38 52.51257 7.81688 25371 ft 479 kts 35°
2026-05-01 11:38 52.54005 7.84784 25374 ft 479 kts 35°
2026-05-01 11:39 52.56754 7.87884 25375 ft 479 kts 35°
2026-05-01 11:39 52.59504 7.90993 25377 ft 480 kts 35°
2026-05-01 11:39 52.62251 7.94108 25379 ft 480 kts 35°
2026-05-01 11:39 52.64995 7.97231 25377 ft 479 kts 35°
2026-05-01 11:40 52.67734 8.00356 25382 ft 479 kts 35°
2026-05-01 11:40 52.70472 8.03483 25366 ft 474 kts 35°
2026-05-01 11:40 52.73109 8.06494 25371 ft 449 kts 35°
2026-05-01 11:40 52.75612 8.09351 25374 ft 427 kts 36°
2026-05-01 11:41 52.78008 8.12153 25373 ft 419 kts 37°
2026-05-01 11:41 52.80351 8.14992 25371 ft 417 kts 37°
2026-05-01 11:41 52.82639 8.17828 25372 ft 416 kts 38°
2026-05-01 11:41 52.84942 8.20707 25264 ft 412 kts 38°
2026-05-01 11:42 52.87210 8.23541 25026 ft 406 kts 38°
2026-05-01 11:42 52.89461 8.26341 24789 ft 404 kts 38°
2026-05-01 11:42 52.91710 8.29129 24553 ft 403 kts 38°
2026-05-01 11:42 52.93951 8.31902 24317 ft 402 kts 38°
2026-05-01 11:43 52.96191 8.34667 24093 ft 401 kts 38°
2026-05-01 11:43 52.98424 8.37429 23864 ft 400 kts 38°
2026-05-01 11:43 53.00657 8.40189 23576 ft 400 kts 38°
2026-05-01 11:44 53.05098 8.45700 23024 ft 397 kts 38°
2026-05-01 11:44 53.07308 8.48450 22755 ft 396 kts 38°
2026-05-01 11:44 53.09513 8.51197 22485 ft 395 kts 38°
2026-05-01 11:44 53.11709 8.53938 22211 ft 394 kts 38°
2026-05-01 11:45 53.13897 8.56675 21987 ft 393 kts 39°
2026-05-01 11:45 53.16080 8.59414 21729 ft 392 kts 39°
2026-05-01 11:45 53.18258 8.62150 21466 ft 391 kts 38°
2026-05-01 11:45 53.20427 8.64878 21218 ft 390 kts 39°
2026-05-01 11:46 53.22593 8.67606 20963 ft 389 kts 39°
2026-05-01 11:46 53.24751 8.70327 20713 ft 388 kts 39°
2026-05-01 11:46 53.26900 8.73039 20464 ft 387 kts 39°
2026-05-01 11:46 53.29050 8.75749 20214 ft 386 kts 39°
2026-05-01 11:47 53.31189 8.78444 19992 ft 385 kts 39°
2026-05-01 11:47 53.33322 8.81131 19705 ft 383 kts 39°
2026-05-01 11:47 53.35353 8.83978 19346 ft 379 kts 47°
2026-05-01 11:47 53.37171 8.87152 18980 ft 376 kts 49°
2026-05-01 11:48 53.38953 8.90335 18409 ft 373 kts 49°
2026-05-01 11:48 53.40724 8.93490 17813 ft 370 kts 49°
2026-05-01 11:48 53.42477 8.96622 17201 ft 367 kts 49°
2026-05-01 11:48 53.44195 8.99692 16635 ft 364 kts 49°
2026-05-01 11:49 53.45949 9.02815 16076 ft 362 kts 49°
2026-05-01 11:49 53.47649 9.05829 15517 ft 359 kts 49°
2026-05-01 11:49 53.49365 9.08857 14963 ft 357 kts 49°
2026-05-01 11:49 53.51072 9.11858 14424 ft 354 kts 49°
2026-05-01 11:50 53.52770 9.14828 13863 ft 351 kts 49°
2026-05-01 11:50 53.54458 9.17773 13277 ft 349 kts 49°
2026-05-01 11:50 53.56136 9.20697 12704 ft 346 kts 49°
2026-05-01 11:50 53.57801 9.23594 12146 ft 343 kts 49°
2026-05-01 11:51 53.59454 9.26465 11601 ft 340 kts 49°
2026-05-01 11:51 53.61097 9.29319 11067 ft 338 kts 49°
2026-05-01 11:51 53.62728 9.32147 10554 ft 335 kts 49°
2026-05-01 11:51 53.64333 9.34930 10285 ft 324 kts 49°
2026-05-01 11:52 53.65870 9.37597 10170 ft 309 kts 49°
2026-05-01 11:52 53.67341 9.40134 10004 ft 297 kts 49°
2026-05-01 11:52 53.68766 9.42600 9683 ft 290 kts 49°
2026-05-01 11:52 53.70164 9.45030 9141 ft 287 kts 49°
2026-05-01 11:53 53.71545 9.47438 8572 ft 284 kts 49°
2026-05-01 11:53 53.72451 9.49026 8209 ft 283 kts 49°
2026-05-01 11:53 53.73807 9.51411 7674 ft 280 kts 49°
2026-05-01 11:53 53.75150 9.53780 7161 ft 278 kts 49°
2026-05-01 11:54 53.76479 9.56134 6628 ft 276 kts 49°
2026-05-01 11:54 53.77794 9.58478 6078 ft 274 kts 49°
2026-05-01 11:54 53.79095 9.60806 5544 ft 271 kts 49°
2026-05-01 11:54 53.80386 9.63127 5016 ft 270 kts 49°
2026-05-01 11:55 53.81659 9.65421 4357 ft 265 kts 49°
2026-05-01 11:55 53.82911 9.67701 3615 ft 264 kts 49°
2026-05-01 11:55 53.84071 9.70138 3114 ft 264 kts 65°
2026-05-01 11:55 53.84484 9.73055 2994 ft 249 kts 95°
2026-05-01 11:56 53.84030 9.75634 3029 ft 216 kts 120°
2026-05-01 11:56 53.83277 9.77744 3009 ft 204 kts 123°
2026-05-01 11:56 53.82513 9.79740 3008 ft 200 kts 124°
2026-05-01 11:56 53.81760 9.81711 3006 ft 199 kts 124°
2026-05-01 11:57 53.80984 9.83646 3002 ft 198 kts 133°
2026-05-01 11:57 53.79878 9.84992 3012 ft 196 kts 153°
2026-05-01 11:57 53.78660 9.86045 2922 ft 198 kts 153°
2026-05-01 11:57 53.77428 9.87108 2709 ft 199 kts 152°
2026-05-01 11:58 53.76215 9.88166 2450 ft 190 kts 152°
2026-05-01 11:58 53.75106 9.89132 2232 ft 168 kts 153°
2026-05-01 11:58 53.73196 9.90793 1794 ft 146 kts 152°
2026-05-01 11:59 53.72302 9.91570 1599 ft 143 kts 152°
2026-05-01 11:59 53.71424 9.92334 1417 ft 141 kts 152°
2026-05-01 11:59 53.70555 9.93089 1221 ft 141 kts 152°
2026-05-01 12:00 53.68810 9.94602 838 ft 140 kts 153°
2026-05-01 12:00 53.67946 9.95341 689 ft 142 kts 153°
2026-05-01 12:00 53.66164 9.96904 271 ft 148 kts 152°
2026-05-01 12:01 53.65240 9.97697 65 ft 148 kts 152°
2026-05-01 12:01 53.64416 9.98409 50 ft 114 kts 153°
2026-05-01 12:01 53.63862 9.98886 49 ft 65 kts 153°
2026-05-01 12:01 53.63537 9.99165 51 ft 39 kts 153°
2026-05-01 12:02 53.63338 9.99355 51 ft 25 kts 134°
2026-05-01 12:02 53.63288 9.99550 50 ft 13 kts 102°
2026-05-01 12:02 53.63275 9.99675 50 ft 9 kts 100°
2026-05-01 12:02 53.63228 9.99759 50 ft 13 kts 152°
2026-05-01 12:03 53.63137 9.99838 50 ft 13 kts 147°
2026-05-01 12:03 53.63149 9.99969 49 ft 13 kts 51°
2026-05-01 12:03 53.63211 10.00101 49 ft 15 kts 51°
2026-05-01 12:03 53.63236 10.00210 51 ft 10 kts 122°
2026-05-01 12:04 53.63206 10.00310 51 ft 10 kts 86°
2026-05-01 12:04 53.63207 10.00354 51 ft 1 kts 86°
2026-05-01 12:04 53.63207 10.00363 51 ft 0 kts 86°